STARLINK-38024, 69975

Orbit data source: Space-Track

STARLINK-38024, 69975 is a payload satellite owned by SpaceX/Seattle (US) in SSO that was launched on Sat, 11 Jul 2026 UTC via an FALCON 9 launch vehicle from the Air Force Western Test Range (AFWTR). Payload-class satellites include a variety of spacecraft equipped with specific instruments for various scientific and technological missions. These include communications satellites like Starlink; space stations such as the ISS; scientific satellites like the Hubble; Earth observation satellites from companies like Planet Labs, Umbra, and HawkEye 360; GPS; miniature CubeSats for education and research; and military/defense satellites.

Not visible in the next 10 days
Identifier
69975, 2026-159A
Orbit
SSO
Country
Flag of USUS
Related business
Manufacturer
SpaceX/Seattle
Mission
Operational spacecraft
Bus & Motor
STARLINK V2MO, Unknown motor
Mass
575 kg wet, ~530 kg dry
Launch date (UTC)
2026-07-11 (1 month ago)
Launch vehicle
FALCON 9
Launch site
Air Force Western Test Range (AFWTR)
Object type
Payload
Rocket body
Debris
Shape & HBR
BOX + PAN, 17.7 m
Radar Cross Section
Large (>1 m²)

Expand to show TLE details & history
Last TLE update: 12 hours ago

TLE from 12 hours ago
0 STARLINK-38024
1 69975U 26159A   26228.53229965  .00159125  00000-0  10456-2 0  9991
2 69975  97.2843  68.9489 0001360  89.8166 270.3255 15.75242775  6963
Epoch: 2026-08-16T12:46Z
TLE epoch observation values (Epoch: 2026-08-16T12:46:30.689Z)
Latitude
-0.00005°
Longitude
-87.60644°
Altitude
347.104 km
Speed
7.701 km/s
True Right ascension
04h 35m 47s
True Declination
0° 00' 00"
Sunlit
Object was in daylight at epoch
Visualization orbit readout
Latitude
Unknown
Longitude
Unknown
Altitude
Unknown
Speed
Unknown
Apparent Right ascension
Unknown
Apparent Declination
Unknown
Sunlit
N/A
Visualization observer readout
Local Sidereal Time
15:55:42
Azimuth
Unknown
Elevation
Unknown
Doppler factor
Unknown
Orbital elements
Apogee altitude
341.742 km
Perigee altitude
339.914 km
Semi-major axis
6,718.965 km
Eccentricity
0.00014
Inclination
97.2843°
RAAN
68.9489°
Arg. of periapsis
89.8166°
True anomaly
270.30992°
Mean anomaly
270.3255°
Eccentric anomaly
270.31771°
Mean motion
3.94085 °/min
Orbital period
91.35 mins
BSTAR
0.0010456
Loading maneuver chart data...
Computing Atmospheric mass density...
Loading historical data...
Loading historical data...
Loading historical data...
Loading historical data...
Loading historical data...
Loading historical data...
Loading historical data...

Documentation

Showing up to 5 results
|